FALCON HEAVY R/B, 44345

Orbit data source: Space-Track

FALCON HEAVY R/B, 44345 is space debris originally from a launch on Tue, 25 Jun 2019 UTC launched from the Air Force Eastern Test Range (AFETR). Debris objects in space refer to the collection of defunct objects orbiting the Earth. Examples of debris include non-operational satellites, rocket bodies, and fragments generated from explosions, collisions, or faulty payload assembly.

Loading next visibility...
Identifier
44345, 2019-036G
Orbit
Active
Last TLE update
3 days ago
Origin
Manufacturer
SpaceX
Mission
Spacecraft
Bus & Motor
F9ST2, Unknown motor
Mass
~4,000 kg wet, ~4,000 kg dry
Launch date (UTC)
2019-06-25 (6 years ago)
Launch vehicle
Unknown
Launch site
Air Force Eastern Test Range (AFETR)
Object type
Payload
Rocket body
Debris
Shape & HBR
Cyl, Unknown HBR
Radar Cross Section
49.816 m², Large (>1 m²)

Expand to show TLE details & history

TLE from 3 days ago
0 FALCON HEAVY R/B
1 44345U 19036G   25179.33981951 -.00000045  00000-0  00000-0 0  9992
2 44345  42.3015  43.0002 2162123 316.4171  28.4171  4.69267850103033
Epoch: 2025-06-28T08:09Z
TLE epoch observation values (Epoch: 2025-06-28T08:09:20.405Z)
Latitude
0.00007°
Longitude
3.99499°
Altitude
6,046.996 km
Speed
6.141 km/s
True Right ascension
02h 52m 02s
True Declination
0° 00' 00"
Sunlit
Object was in daylight at epoch
Visualization orbit readout
Latitude
41.35232°
Longitude
77.52921°
Altitude
9,779.03 km
Speed
4.787 km/s
Apparent Right ascension
07h 56m 39s
Apparent Declination
21° 10' 34"
Sunlit
Object is in daylight
Visualization observer readout
Local Sidereal Time
20:22:39
Azimuth
6.907° NNE
Elevation
-28.607°
Doppler factor
1
Orbital elements
Apogee altitude
11,951.758 km
Perigee altitude
5,434.559 km
Semi-major axis
15,071.295 km
Eccentricity
0.21621
Inclination
42.3015°
RAAN
43.0002°
Arg. of periapsis
316.4171°
True anomaly
Unknown
Mean anomaly
28.4171°
Eccentric anomaly
Unknown
Mean motion
1.17305 °/min
Orbital period
306.89 mins
BSTAR
0
Loading maneuver chart data...
Loading SW <> Apogee altitude chart data...
Loading historical data...
Loading historical data...
Loading historical data...
Loading historical data...
Loading historical data...
Loading historical data...
Loading historical data...

FALCON HEAVY R/B Visibility forecast

Observer location: undefined°, undefined°

Span
Click to sort rows by Start time (UTC) header in descending order
Start Az.
Max El. time (UTC)
Max El. Az.
Max El.
End time (UTC)
End Az.
31 mins2025-07-01 12:54:29.142Z127.391° SE2025-07-01 13:08:29.142Z101.691° ESE13.276°2025-07-01 13:25:29.142Z77.06° E
125 mins2025-07-01 18:03:29.142Z234.959° WSW2025-07-01 18:43:29.142Z157.553° S44.87°2025-07-01 20:08:29.142Z79.418° E
153 mins2025-07-01 23:53:29.142Z293.172° NW2025-07-02 01:05:29.142Z227.159° WSW43.336°2025-07-02 02:26:29.142Z152.099° SSE
|